Location: Terra Rouge Observatory
(46.0000°N, 62.7500°W)
Time: 17:34:41
(UTC-03:00)

Daily predictions for brighter satellites

Satellite Brightness Start Highest point End
(mag) Time Altitude Azimuth Time Altitude Azimuth Time Altitude Azimuth
Cosmos 1943 Rocket 3.0 21:12:00 10° NW 21:17:26 51° WSW 21:22:48 10° S
NOSS 3-4 (A) 4.2 21:13:16 10° SW 21:19:31 62° NW 21:26:04 10° NE
NOSS 3-4 (C) 4.2 21:13:21 10° SW 21:19:37 63° NW 21:26:11 10° NE
Okean 1 3.6 21:15:46 10° SSW 21:19:43 72° W 21:23:43 10° N
Cosmos 1975 3.3 21:16:34 10° NNW 21:20:37 65° W 21:24:38 10° S
Cosmos 773 Rocket 3.9 21:16:21 10° SSW 21:21:27 73° ESE 21:26:37 10° NNE
USA 81 4.1 21:18:54 10° S 21:24:09 75° E 21:29:27 10° N
Cosmos 374 Rocket 4.2 21:21:08 10° NW 21:24:58 87° NE 21:28:52 10° SE
Meteor 1-13 Rocket 4.5 21:19:18 10° S 21:25:07 58° E 21:30:54 10° NNE
Cosmos 1025 Rocket 4.3 21:22:41 10° SE 21:26:00 22° E 21:29:21 10° NE
NOSS 2-2 (C) 3.7 21:23:12 10° SSW 21:27:05 48° ESE 21:31:33 10° NE
Cosmos 1500 4.3 21:23:56 10° NNW 21:27:33 44° W 21:31:08 10° SSW
SAR-Lupe-1 4.3 21:25:58 10° S 21:29:32 74° WSW 21:33:09 10° NNW
Cosmos 1441 Rocket 4.2 21:27:20 10° SSE 21:30:33 28° E 21:33:47 10° NNE
COSMOS 2455 3.7 21:25:54 10° NW 21:31:40 49° WSW 21:37:23 10° S
Helios 1B rocket 2.6 21:29:10 10° N 21:33:18 78° WNW 21:37:25 10° SSW
Cosmos 292 Rocket 4.2 21:29:20 10° SSW 21:34:09 71° WNW 21:38:59 10° NNE
COSMOS 2406 3.4 21:29:33 10° S 21:35:05 52° ESE 21:40:37 10° NE
PSLV R/B 3.9 21:32:39 10° WSW 21:35:30 32° S 21:38:17 11° ESE
Cosmos 1455 Rocket 4.0 21:32:24 10° NNW 21:36:38 48° W 21:40:49 10° SSW
ARGOS 3.8 21:32:22 10° SE 21:37:26 43° ENE 21:42:33 10° N
Cosmos 1939 Rocket 3.5 21:34:21 10° S 21:38:08 53° W 21:41:57 10° NNW
Cosmos 1680 Rocket 3.6 21:38:59 10° S 21:44:05 56° ESE 21:49:11 10° NNE
Cosmos 2056 Rocket 4.4 21:39:43 10° N 21:44:29 34° ENE 21:48:48 12° ESE
SL-27 R/B 3.3 21:42:10 10° S 21:45:29 34° ESE 21:48:50 10° NE
SPOT 5 3.1 21:43:50 11° SE 21:47:43 44° ENE 21:51:52 10° N
Cosmos 2082 Rocket 4.1 21:47:10 10° ESE 21:47:55 10° E 21:48:39 10° E
H-2A R/B 4.0 21:47:59 10° ESE 21:51:00 18° ENE 21:54:04 10° NNE
Cosmos 1743 3.4 21:48:41 10° NNW 21:52:30 55° W 21:56:18 10° S
Cosmos 1346 2.9 21:53:32 10° SSW 21:56:18 77° WNW 21:59:05 10° N
Envisat 4.5 21:52:35 10° SSW 21:57:13 35° W 22:01:52 10° NNW
Cosmos 405 3.0 21:54:27 10° N 21:58:01 66° ENE 22:00:55 15° SSE
Terra 3.3 21:58:19 12° ESE 22:01:38 24° ENE 22:05:24 10° NNE
ASTEX 1 3.5 21:57:58 10° S 22:02:52 79° W 22:07:48 10° N
MetOp-B 4.1 21:58:39 10° SSE 22:03:57 87° ENE 22:09:21 10° NNW
Aureole 3 Rocket 3.8 21:57:48 10° SSW 22:04:22 78° W 22:09:00 10° N
SPOT 1/Viking Rocket 3.8 22:03:38 15° SE 22:07:49 55° ENE 22:12:51 10° N
CRYOSAT 2 4.5 22:04:25 10° S 22:09:15 77° W 22:14:08 10° N
Cosmos 1697 Rocket 4.2 22:05:38 10° N 22:10:10 24° NE 22:14:40 10° ESE
Cosmos 1437 Rocket 2.9 22:07:40 10° N 22:11:26 56° ENE 22:13:57 20° SSE
Meteor 2-9 Rocket 4.3 22:06:58 10° NNW 22:12:25 77° W 22:17:53 10° S
Tiangong 2 2.3 22:10:40 10° SSW 22:13:13 22° SSE 22:13:19 22° SSE
COSMOS 2487 4.4 22:13:30 14° E 22:13:36 14° E 22:15:34 10° ENE
Okean 1-7 Rocket 3.5 22:09:31 10° S 22:13:58 82° E 22:18:29 10° N
Aureole 1 Rocket 2.1 22:10:43 10° SSW 22:14:03 90° SSE 22:17:03 10° NNE
NOSS 2-2 (E) 4.3 22:11:38 10° SW 22:15:43 59° NW 22:20:38 10° NE
Cosmos 1238 Rocket 4.2 22:09:34 10° S 22:16:18 89° ESE 22:22:54 10° N
DNEPR-1 R/B 4.2 22:12:51 10° NW 22:16:57 49° WSW 22:20:18 16° S
Okean 2 3.4 22:13:59 14° S 22:17:20 59° E 22:21:23 10° NNE
Meteor 2-4 Rocket 4.0 22:16:07 10° SSW 22:21:44 75° WNW 22:27:34 10° N
Cosmos 1666 4.1 22:19:37 10° NNW 22:23:05 35° W 22:26:30 10° SSW
Cosmos 1371 Rocket 4.0 22:18:32 10° NNW 22:23:55 90° WSW 22:27:44 19° SSE
TELKOM 3 3.8 22:22:31 10° WNW 22:24:51 55° NNE 22:26:52 18° E
ISS -3.3 22:22:25 10° SSW 22:25:28 35° SE 22:28:31 10° ENE
Cosmos 1892 Rocket 3.9 22:24:30 20° SSE 22:27:18 49° E 22:31:35 10° NNE
Cosmos 2228 3.6 22:23:45 10° N 22:27:52 41° ENE 22:30:01 23° SE
OAO 2 Rocket 4.5 22:26:04 10° SW 22:29:57 23° S 22:31:03 21° SSE
Cosmos 1656 4.3 22:26:10 10° NNW 22:31:20 42° NE 22:34:51 19° ESE
Cosmos 1833 Rocket 3.9 22:29:45 20° SE 22:31:27 23° ESE 22:35:44 10° NE
Cosmos 2181 Rocket 4.1 22:28:20 16° SSE 22:33:29 60° E 22:39:40 10° NNE
Cosmos 921 Rocket 3.3 22:29:12 10° NNW 22:33:40 58° ENE 22:36:04 25° SE
CZ-3A R/B 3.3 22:33:05 10° SSW 22:33:08 10° SSW 22:33:08 10° SSW
Cosmos 1606 Rocket 3.6 22:34:36 10° NNW 22:38:56 78° W 22:41:41 22° S
USA 245 3.5 22:38:45 22° SSW 22:39:58 36° WSW 22:42:16 10° NNW
Lacrosse 5 rocket 4.1 22:37:02 10° NW 22:40:31 21° N 22:44:03 10° NE
USA 267 4.1 22:39:35 10° ENE 22:44:54 26° SE 22:46:46 23° SSE
SL-24 DEB 4.3 22:43:07 20° S 22:46:20 75° W 22:51:00 10° N
Cosmos 1726 Rocket 3.6 22:45:35 10° NNW 22:49:54 72° W 22:52:22 25° S
Cosmos 1295 Rocket 4.5 22:45:12 10° N 22:51:24 89° W 22:55:37 22° S
OE (NEXTSAT) 4.4 22:48:09 10° W 22:51:41 60° SSW 22:52:38 42° SE
Meteor 1-4 Rocket 3.1 22:51:40 10° N 22:55:09 43° ENE 22:56:01 36° ESE
Cosmos 1515 3.7 22:53:03 24° SSW 22:55:13 78° W 22:59:03 10° N
H-2A R/B 2.2 22:52:51 22° S 22:55:59 65° WSW 23:01:01 10° NNW
Cosmos 2058 Rocket 3.0 22:51:57 10° N 22:56:22 84° W 22:58:33 30° S
Cosmos 1980 Rocket 3.4 22:52:07 10° NNW 22:57:12 32° NE 23:00:40 17° ESE
CARTOSAT-1 3.5 22:59:30 34° SSE 23:01:22 81° ENE 23:05:42 10° N
DMSP B5D2-2 4.0 22:57:59 10° NNE 23:03:18 79° ESE 23:06:40 23° S
PSLV R/B 3.2 23:04:14 53° ENE 23:04:15 53° ENE 23:07:00 10° N
Cosmos 2322 Rocket 4.4 23:01:19 10° N 23:05:03 17° NE 23:08:45 10° E
USA 229 DEB 4.5 23:02:27 10° NNW 23:09:19 48° NE 23:14:47 17° ESE
USA 229 4.5 23:02:33 10° NNW 23:09:25 48° NE 23:14:53 17° ESE
SeaSat 1 4.0 23:06:52 15° E 23:09:59 26° NE 23:14:04 10° N
Meteor 1-22 Rocket 4.2 23:07:55 10° N 23:13:12 64° ENE 23:15:28 34° SSE
SL-8 Rocket 4.1 23:13:10 10° NNW 23:19:24 74° W 23:23:03 27° S
USA 234 4.3 23:15:25 10° E 23:21:32 44° NNE 23:27:39 10° NW
Cosmos 2366 rocket 3.9 23:17:15 10° N 23:23:28 90° E 23:26:33 32° S
Cosmos 1812 Rocket 3.7 23:20:33 10° N 23:25:00 61° ENE 23:26:12 44° SE
Cosmos 1805 4.3 23:21:51 10° N 23:25:23 31° ENE 23:25:55 30° E
Cosmos 2278 4.1 23:20:37 10° NNW 23:26:12 56° WSW 23:28:45 31° S
CZ-4C R/B 3.2 23:26:09 51° E 23:26:31 54° ENE 23:30:01 10° N
H-2A R/B 2.5 23:24:49 34° SSW 23:26:35 58° W 23:31:05 10° NNW
Meteor 2-21 4.4 23:22:01 10° N 23:28:06 84° W 23:31:02 32° S
Cosmos 2082 Rocket 2.1 23:28:02 30° S 23:30:56 72° ESE 23:36:36 10° NNE
Meteor 2-21 Rocket 4.4 23:24:51 10° N 23:30:57 85° E 23:33:41 35° SSE
Cosmos 1544 3.6 23:33:03 10° N 23:36:33 44° ENE 23:36:42 44° E
CZ-4B R/B 3.4 23:32:11 10° NNE 23:37:14 77° ESE 23:39:09 39° S
Cosmos 158 Rocket 4.5 23:36:33 38° SE 23:37:33 42° ESE 23:42:35 10° NE
Cosmos 1626 Rocket 3.5 23:37:17 45° SSW 23:38:34 82° W 23:42:55 10° N
Terra 2.5 23:37:11 30° SSW 23:39:07 45° W 23:43:42 10° NNW
Cosmos 389 Rocket 4.0 23:36:15 10° NNE 23:39:11 24° ENE 23:39:14 24° ENE
CZ-2C R/B 3.9 23:39:04 10° NE 23:43:48 27° E 23:44:47 26° ESE
ALOS 2 4.0 23:43:48 24° E 23:44:58 27° ENE 23:48:42 10° N
Timation 2 Rocket 4.1 23:42:49 36° S 23:45:13 57° ESE 23:51:14 10° NE
Spot 4 3.9 23:45:18 44° S 23:46:45 71° WSW 23:51:35 10° NNW
Cosmos 1420 Rocket 4.0 23:42:53 10° NNW 23:48:11 79° WSW 23:49:47 45° S
COSMOS 2487 3.6 23:47:21 28° WSW 23:48:41 40° WNW 23:52:06 10° N
Cosmos 1825 Rocket 4.0 23:51:38 43° ESE 23:51:56 44° E 23:56:03 10° NNE
Cosmos 1842 3.1 23:53:44 69° ESE 23:53:54 71° E 23:57:49 10° NNE
Cosmos 1048 Rocket 4.0 23:53:18 48° SSE 23:54:27 62° ESE 23:59:33 10° NNE
Cosmos 1953 2.8 23:50:53 10° N 23:54:51 48° ENE 23:55:13 46° E
